This is the latest recevied weather packets stored in our database for station/object DB0ROB-10. If no packets are shown the sender has not sent any weather packets the latest 10 day(s).
| Time | Temp. | Humidity | Pressure | Rain* | Wind** | Luminosity | Snow |
|---|---|---|---|---|---|---|---|
| 1777753881 | 17.22° C | 30% | 1017.4 hPa | - | - | - | - |
| 1777752981 | 17.22° C | 31% | 1017.3 hPa | - | - | - | - |
| 1777752081 | 17.22° C | 31% | 1017.4 hPa | - | - | - | - |
| 1777751189 | 17.22° C | 31% | 1017.6 hPa | - | - | - | - |
| 1777750289 | 17.78° C | 31% | 1017.6 hPa | - | - | - | - |
| 1777749388 | 17.78° C | 30% | 1017.5 hPa | - | - | - | - |
| 1777748487 | 18.33° C | 29% | 1017.5 hPa | - | - | - | - |
| 1777747587 | 18.89° C | 28% | 1017.5 hPa | - | - | - | - |
| 1777746687 | 18.89° C | 29% | 1017.5 hPa | - | - | - | - |
| 1777745787 | 18.89° C | 29% | 1017.4 hPa | - | - | - | - |
| 1777744887 | 19.44° C | 28% | 1017.5 hPa | - | - | - | - |
| 1777743987 | 20° C | 28% | 1017.6 hPa | - | - | - | - |
| 1777743086 | 20.56° C | 27% | 1017.5 hPa | - | - | - | - |
| 1777742186 | 21.11° C | 26% | 1017.6 hPa | - | - | - | - |
| 1777741285 | 21.11° C | 26% | 1017.7 hPa | - | - | - | - |
| 1777740385 | 21.11° C | 25% | 1017.8 hPa | - | - | - | - |
| 1777739485 | 21.11° C | 25% | 1017.9 hPa | - | - | - | - |
| 1777738584 | 21.67° C | 25% | 1018.1 hPa | - | - | - | - |
| 1777737684 | 21.67° C | 23% | 1018.2 hPa | - | - | - | - |
| 1777736783 | 22.22° C | 23% | 1018.4 hPa | - | - | - | - |
| 1777735883 | 22.78° C | 22% | 1018.6 hPa | - | - | - | - |
| 1777734982 | 22.22° C | 23% | 1018.7 hPa | - | - | - | - |
| 1777734081 | 22.22° C | 23% | 1018.8 hPa | - | - | - | - |
| 1777733181 | 21.67° C | 22% | 1019 hPa | - | - | - | - |
| 1777732280 | 22.22° C | 22% | 1019.2 hPa | - | - | - | - |
* Rain since midnight (hover to see other rain measurements)
** Current wind speed in m/s (hover to see current wind gust speed)